Flag for Seychelles Weather past 2 weeks in Victoria, Seychelles

Now
81 °F

Passing clouds.


Feels Like: 86 °F
Forecast: 74 / 84 °F
Wind: No wind

Location: National Airport

Current Time: Apr 28, 2015 at 10:59:12 PM

Latest Report: Apr 28, 2015 at 10:00 PM


Visibility: N/A

Pressure: 29.89 "Hg

Humidity: 84%

Dew point: 75 °F

Location of VictoriaLocation

Historic Weather in Victoria — Graph

°F

Victoria temperature yesterday

Maximum temperature yesterday: 90 °F (at 12:00 PM)
Minimum temperature yesterday: 81 °F (at 2:00 AM)
Average temperature yesterday: 85 °F

Past Weeks' High & Low Weather Summary

 TemperatureHumidityPressure
High91 °F (Apr 24, 12:00 PM)94% (Apr 15, 3:00 PM)29.95 "Hg (Apr 15, 3:00 PM)
Low79 °F (Apr 18, 3:00 AM)55% (Apr 18, 4:00 PM)29.74 "Hg (Apr 14, 3:00 PM)
Average84 °F77%29.84 "Hg
* Reported Apr 13 9:00 PM — Apr 28 9:00 PM, Victoria, Weather by CustomWeather, © 2015

Note: Actual official high and low records may vary slightly from our data, if they occured in-between our weather recording intervals... More about our weather records

Advertising

Victoria weather history for previous 24 hours

 ConditionsComfort  
Time TempWeatherWind HumidityBarometerVisibility
9:00 PM
Tue, Apr 28
81 °FThunderstorms. Passing clouds.No wind89%29.89 "HgN/A
8:00 PM81 °FSprinkles. Passing clouds.No wind89%29.86 "HgN/A
7:00 PM84 °FPassing clouds.2 mph74%29.83 "HgN/A
6:00 PM86 °FScattered clouds.6 mph70%29.83 "HgN/A
5:00 PM88 °FScattered clouds.7 mph66%29.80 "HgN/A
4:00 PM88 °FScattered clouds.8 mph66%29.77 "HgN/A
3:00 PM90 °FPassing clouds.6 mph67%29.77 "HgN/A
2:00 PM90 °FPassing clouds.6 mph67%29.80 "HgN/A
1:00 PM88 °FPassing clouds.7 mph70%29.80 "HgN/A
12:00 PM88 °FPassing clouds.5 mph70%29.83 "HgN/A
11:00 AM88 °FPassing clouds.5 mph70%29.86 "HgN/A
10:00 AM86 °FPassing clouds.3 mph70%29.86 "HgN/A
9:00 AM86 °FPassing clouds.9 mph66%29.86 "HgN/A
8:00 AM81 °FPassing clouds.No wind89%29.86 "HgN/A
7:00 AM79 °FPassing clouds.2 mph84%29.83 "HgN/A
6:00 AM79 °FPassing clouds.2 mph89%29.80 "HgN/A
5:00 AM79 °FPassing clouds.2 mph84%29.80 "HgN/A
4:00 AM81 °FPassing clouds.2 mph79%29.80 "HgN/A
3:00 AM82 °FPassing clouds.2 mph70%29.80 "HgN/A
2:00 AM82 °FPassing clouds.7 mph66%29.80 "HgN/A
1:00 AM81 °FPassing clouds.21 mph79%29.83 "HgN/A
12:00 AM79 °FPassing clouds.13 mph89%29.89 "HgN/A
11:00 PM
Mon, Apr 27
81 °FThunderstorms. Passing clouds.12 mph89%29.89 "HgN/A
10:00 PM86 °FPassing clouds.8 mph75%29.86 "HgN/A
Weather by CustomWeather, © 2015

See weather overviewHow to use our weather pages